www.pogodaiklimat.ru

Погода и климат >> Архив погоды >> Россия >> Краснодарский край >> Староминская


ПОГОДА в Староминская

  • Прогноз погоды в Староминская
  • Монитор погоды в Староминская

АРХИВ ПОГОДЫ в Староминская

Время (UTC), дата Ветер
(напр.,м/с)
 
Видим.   Явления Облачность Т
(С)
Тd
(С)
f
(%)
Тe
(С)
Тes
(С)
Комфортность P
(гПа)
Po
(гПа)
Тmin
(С)
Tmax
(С)
R
(мм)
R24
(мм)
S
(см)
15 11.02 В 1 10 км 10/10 600 м
[Sc]
+5.6 +2.4 80 +5 +5 1020.5 1015.1 +5.8
18 11.02 В 2 10 км 10/10 600 м
[Sc]
+5.6 +2.3 79 +3 +3 1020.2 1014.9
21 11.02 В 2 4000 м дымка 10/10 600 м
[Sc]
+5.5 +2.4 80 +3 +3 1019.3 1014.0
00 12.02 ЮВ 3 4000 м дымка ясно +4.4 +1.3 80 +1 +1 1018.5 1013.2
03 12.02 ЮВ 3 4000 м дымка ясно +2.2 +0.5 89 -2 -2 1018.5 1013.1 +2.1
06 12.02 ЮВ 4 4000 м дымка 9/9 600 м
[Sc]
+2.3 +0.4 87 -3 -3 1018.1 1012.7 +1.8
09 12.02 ЮВ 5
{10}
10 км 8/4 600 м
[Sc Ci fib]
+7.1 +2.0 70 +3 +5 1017.2 1011.9
12 12.02 В 4 10 км 8/6 600 м
[Sc Ci fib]
+9.8 +2.6 61 +7 +8 1016.0 1010.7
15 12.02 В 3 10 км 8/8 600 м
[Sc]
+8.2 +2.2 66 +6 +6 1016.2 1011.0 +10.0
18 12.02 ЮВ 4 10 км 8/8 600 м
[Sc]
+6.5 +1.1 68 +3 +3 1016.4 1011.1
21 12.02 В 3 10 км ясно +3.4 +0.1 79 -0 -0 1017.1 1011.7
00 13.02 ЮВ 2 4000 м дымка ясно +1.9 -0.6 83 -1 -1 1017.1 1011.7
03 13.02 В 2 4000 м дымка 10/10 600 м
[Sc]
+2.7 -0.2 81 -0 -0 1018.5 1013.1 +1.7
06 13.02 Ю 2 4000 м дымка 9/9 600 м
[Sc]
+2.4 -0.3 82 -1 -1 1020.0 1014.6 +1.6
09 13.02 ЮЗ 3 10 км 8/8 600 м
[Sc]
+8.5 +2.9 68 +6 +7 1021.2 1015.9
12 13.02 СЗ 4 4000 м 8/5 600 м
[Cu med, cong Ci fib]
+7.9 +1.7 65 +5 +6 1021.8 1016.5
15 13.02 З 3 10 км 10/10 600 м
[Sc]
+4.8 -0.4 69 +2 +2 1022.9 1017.5 +9.5
18 13.02 СЗ 2 10 км 10/10 600 м
[Sc]
+2.8 -0.9 77 -0 -0 1024.7 1019.3
21 13.02 З 1 10 км 10/10 600 м
[Sc]
+2.1 -1.2 79 +1 +1 1025.2 1019.8
00 14.02 СЗ 2 10 км 10/10 600 м
[Sc]
+0.9 -2.3 79 -2 -2 1025.9 1020.5
03 14.02 С 1 10 км ясно -2.3 -5.2 80 -4 -4 1026.6 1021.0 -2.3
06 14.02 С 2 1000 м 8/4 600 м
[Sc Ci fib]
-2.1 -5.5 77 -6 -5 1027.4 1021.9 -4.2
09 14.02 СВ 3 1000 м 3/3 600 м
[Sc]
+2.6 -7.7 47 -1 +3 1027.1 1021.7
12 14.02 СВ 4 10 км 8/4 600 м
[Sc Ci fib]
+4.4 -8.8 38 +1 +2 1025.5 1020.1
15 14.02 СВ 3 10 км 3/3 600 м
[Sc]
+2.3 -8.3 45 -1 -1 1025.7 1020.2 +4.6
18 14.02 СВ 3 10 км ясно -0.7 -7.6 60 -5 -5 1026.8 1021.3
21 14.02 СВ 3 10 км 10/10 600 м
[Sc]
-1.4 -8.3 59 -6 -6 1026.6 1021.1
00 15.02 СВ 3 10 км 10/10 600 м
[Sc]
-2.0 -8.5 61 -7 -7 1026.9 1021.4
03 15.02 СВ 3 10 км 3/3 600 м
[Sc]
-3.5 -8.1 70 -9 -9 1027.5 1022.0 -3.5
06 15.02 СВ 3 10 км 6/6 600 м
[Sc]
-2.9 -7.9 68 -8 -7 1028.5 1022.9 -4.1
09 15.02 В 3 10 км 3/3 600 м
[Sc]
+2.1 -8.2 46 -1 +2 1027.2 1021.8
12 15.02 СВ 4 10 км 3/3 600 м
[Sc]
+4.2 -9.3 37 +1 +2 1025.9 1020.5
15 15.02 С 3 10 км 3/3 600 м
[Sc]
+1.5 -9.1 45 -2 -2 1025.6 1020.2 +4.4
18 15.02 С 1 10 км ясно -3.1 -8.0 69 -5 -5 1025.4 1019.9
21 15.02 СЗ 2 10 км ясно -5.0 -8.1 79 -9 -9 1024.7 1019.1
00 16.02 З 1 4000 м дымка ясно -6.6 -8.9 84 -9 -9 1023.2 1017.6
03 16.02 З 3 10 км ясно -3.4 -6.5 79 -9 -9 1021.8 1016.2 -8.6
06 16.02 ЮЗ 2 4000 м дымка 10/10 600 м
[Sc]
-1.0 -2.8 88 -5 -5 1021.8 1016.3
09 16.02 З 4 4000 м дымка 10/10 600 м
[Sc]
+1.2 -1.5 82 -4 -4 1021.6 1016.2
12 16.02 З 6-10
{10}
10 км 10/10 600 м
[Sc]
+2.1 -1.7 76 -4 -4 1020.7 1015.3
15 16.02 З 4
{10}
10 км 10/10 600 м
[Sc]
+2.3 -1.3 77 -2 -2 1020.4 1015.0 +2.4
18 16.02 СЗ 3 4000 м дымка 10/10 600 м
[Sc]
+2.0 -0.6 83 -2 -2 1021.0 1015.6
21 16.02 СЗ 3 4000 м дымка 10/10 600 м
[Sc]
+1.1 -1.1 85 -3 -3 1021.5 1016.1
00 17.02 З 3 10 км 10/10 600 м
[Sc]
+1.2 -2.2 78 -3 -3 1020.8 1015.4
03 17.02 З 3 10 км 10/10 600 м
[Sc]
+1.0 -2.2 79 -3 -3 1020.1 1014.6 +1.0
06 17.02 З 4 4000 м дымка 10/10 600 м
[Sc]
+1.0 -0.2 92 -4 -4 1019.8 1014.3 +0.7
09 17.02 ЮЗ 6-10
{11}
4000 м слаб. морось 10/10 300 м
[St]
+2.2 +0.5 89 -4 -4 1018.6 1013.2
12 17.02 ЮЗ 8-14
{14}
4000 м дымка 10/10 600 м
[Sc]
+2.8 +0.5 85 -4 -4 1015.9 1010.5
15 17.02 ЮЗ 7-13
{15}
4000 м дымка 10/10 600 м
[Sc]
+4.6 +2.6 87 -1 -1 1013.2 1007.9 +4.6 0.0
18 17.02 ЮЗ 7-14
{16}
4000 м дымка ясно +5.9 +3.0 82 +1 +1 1012.3 1007.0
21 17.02 З 6-12
{15}
4000 м дымка 6/6 600 м
[Sc]
+4.7 +2.3 84 -1 -1 1011.8 1006.5
00 18.02 З 4
{11}
4000 м дымка 10/10 600 м
[Sc]
+3.8 +1.3 84 -1 -1 1011.8 1006.5
03 18.02 З 4 10 км 9/9 600 м
[Sc]
+2.5 -1.0 78 -2 -2 1012.4 1007.0 +2.4
06 18.02 З 5 4000 м дымка 9/9 600 м
[Sc]
+2.2 -0.8 81 -3 -3 1014.4 1009.0 +1.1
09 18.02 СЗ 4
{10}
10 км 4/3 1000 м
[Cu Sc Ci fib]
+5.3 -3.5 53 +2 +5 1015.4 1010.0

 

Местоположение метеостанции Староминская (Краснодарский край, Россия): широта 46.53 долгота 39.02 высота над уровнем моря 43 м.

В архиве по умолчанию представлена погода в Староминская за последнюю неделю. Архивные данные за месяц целиком и за предыдущие месяцы, начиная с января 2011 года, Вы можете получить, выбрав интересующий диапазон дат из раскрывающегося списка и нажав кнопку "Ввод!".


*Определитесь, кто Вы:
робот инопланетянин человек

Внимание! Время в таблицах - всемирное. Для получения местного времени необходимо прибавить поправку, которая равна 3 ч.

Смотрите также архив погоды в соседних городах и на ближайших метеорологических станциях:

Погода в Кущевской (Краснодарский край, Россия) (46 км)
Погода в Маргаритово (Ростовская область, Россия) (46 км)
Погода в Каневской (Краснодарский край, Россия) (51 км)
Погода в Ейске (Краснодарский край, Россия) (65 км)
Погода в Таганроге (Ростовская область, Россия) (75 км)
Погода в Сосыке (Краснодарский край, Россия) (76 км)
Погода в Приморско-Ахтарске (Краснодарский край, Россия) (87 км)
Погода в Должанке (Краснодарский край, Россия) (100 км)
Погода в Тимашевске (Краснодарский край, Россия) (100 км)
Погода в Ростове-на-Дону (Ростовская область, Россия) (102 км)

Пояснения к столбцам:

Ветер - указаны скорость ветра в м/с - средняя за 10 мин, порывы в срок и между сроками (в фигурных скобках) и направление, откуда дует ветер: С - северный, СВ - северо-восточный, В - восточный, ЮВ - юго-восточный, Ю - южный, ЮЗ - юго-западный, З - западный, СЗ - северо-западный.
Видимость - горизонтальная дальность видимости в метрах или километрах. При видимости от 1 до 10 км при отсутствии осадков обычно наблюдается дымка, при ухудшении видимости до 1 км и менее - туман. В сухую погоду видимость может ухудшаться дымом, пылью или мглою.
Явления - указаны атмосферные явления, наблюдавшиеся в срок или в последний час перед сроком; фигурными скобками обозначены явления, наблюдавшиеся между сроками (за 1-3 часа до срока); квадратными скобками обозначены град или гололедные отложения с указанием их диаметра в мм.
Облачность - указаны через наклонную черту общая и нижняя облачность в баллах и высота нижней границы облаков в метрах; квадратными скобками обозначены формы облаков: Ci - перистые, Cs - перисто-слоистые, Cc - перисто-кучевые, Ac - высококучевые, As - высокослоистые, Sc - слоисто-кучевые, Ns - слоисто-дождевые, Cu - кучевые, Cb - кучево-дождевые. Подробнее классификацию облаков см. в Атласе облаков (PDF).
T - Температура воздуха - температура, измеренная на высоте 2 м над землей.
Td - Температура точки росы - температура, при понижении до которой содержащийся в воздухе водяной пар достигнет насыщения.
f - Относительная влажность воздуха - влажноcть воздуха, измеренная на высоте 2 м над землей.
Te - Эффективная температура - температура, которую ощущает одетый по сезону человек в тени. Характеристика душности погоды. При расчете учитывается влияние влажности воздуха и скорости ветра на теплоощущения человека.
Tes - Эффективная температура на солнце - температура, которую ощущает человек, с поправкой на солнечный нагрев. Характеристика знойности погоды. Зависит от высоты солнца над горизонтом, облачности и скорости ветра. Ночью, в пасмурную погоду, а также при ветре 12 м/с и более поправка равна нулю.
P - Атмосферное давление - приведенное к уровню моря атмосферное давление.
Po - Атмосферное давление - измеренное на уровне метеостанции атмосферное давление.
Tmin - Минимальная температура - минимум температуры воздуха на высоте 2 м над землей.
Tmax - Максимальная температура - максимум температуры воздуха на высоте 2 м над землей.
R - Количество осадков - Количество выпавших осадков за период времени, мм. При наведении курсора мыши на число - период времени, за который выпало указанное количество осадков.
R24 - Количество осадков - Количество выпавших осадков за 24 часа, мм.
S - Снежный покров - Высота снежного покрова, см. При наведении курсора мыши на число - состояние снежного покрова и степень покрытия местности в баллах.